This demonstration page uses our WeatherBlox Daily Observations layout. Learn more.

Left ArrowRight Arrow

39.92423, -83.80882

Hourly Observations for August 20, 2020

Temp ( °F °C ) Dew Point ( °F °C ) Humidity (%) Winds ( mph kmh ) Pressure ( in mb ) Visibility ( mi km ) Precip ( " mm )
12:56 am 00:56 Clear 58 14.4 55 12.8 90 90 NNE 5 7 30.08 1019 10 16 N/A
1:56 am 01:56 Clear 57 13.9 54 12.2 90 90 ESE 5 7 30.07 1018 10 16 N/A
2:56 am 02:56 Clear 54 12.2 53 11.7 97 97 E 3 6 30.07 1018 10 16 N/A
3:56 am 03:56 Clear 54 12.2 53 11.7 97 97 E 3 6 30.07 1018 10 16 N/A
4:56 am 04:56 Clear 52 11.1 52 11.1 100 100 ENE 3 6 30.07 1018 10 16 N/A
5:56 am 05:56 Clear 51 10.6 51 10.6 100 100 ENE 3 6 30.07 1018 10 16 N/A
6:56 am 06:56 Sunny 52 11.1 52 11.1 100 100 N N/A 30.07 1018 10 16 N/A
7:56 am 07:56 Sunny 56 13.3 55 12.8 97 97 NE 3 6 30.08 1019 10 16 N/A
8:56 am 08:56 Sunny 62 16.7 57 13.9 84 84 ENE 5 7 30.09 1019 10 16 N/A
9:56 am 09:56 Sunny 68 20 58 14.4 70 70 E 5 7 30.08 1019 10 16 N/A
10:56 am 10:56 Sunny 71 21.7 57 13.9 61 61 E 5 7 30.08 1019 10 16 N/A
11:56 am 11:56 Sunny 74 23.3 56 13.3 54 54 NNE 5 7 30.08 1019 10 16 N/A
12:56 pm 12:56 Sunny 75 23.9 55 12.8 50 50 ESE 6 9 30.06 1018 10 16 N/A
1:56 pm 13:56 Sunny 75 23.9 56 13.3 52 52 VRB 3 6 30.04 1017 10 16 N/A
2:56 pm 14:56 Sunny 77 25 56 13.3 48 48 VRB 5 7 30.02 1017 10 16 N/A
3:56 pm 15:56 Sunny 77 25 55 12.8 47 47 N N/A 30.01 1016 10 16 N/A
4:56 pm 16:56 Sunny 77 25 57 13.9 50 50 VRB 3 6 29.98 1015 10 16 N/A
5:56 pm 17:56 Sunny 77 25 57 13.9 50 50 N N/A 29.97 1015 10 16 N/A
6:56 pm 18:56 Sunny 77 25 57 13.9 50 50 N N/A 29.96 1015 10 16 N/A
7:56 pm 19:56 Sunny 73 22.8 61 16.1 66 66 N N/A 29.96 1015 10 16 N/A
8:56 pm 20:56 Clear 65 18.3 62 16.7 90 90 N N/A 29.98 1015 10 16 N/A
9:56 pm 21:56 Clear 63 17.2 61 16.1 93 93 N N/A 29.99 1016 10 16 N/A
10:56 pm 22:56 Clear 60 15.6 60 15.6 100 100 N N/A 29.99 1016 10 16 N/A
11:56 pm 23:56 Clear 59 15 59 15 100 100 N N/A 29.98 1015 10 16 N/A

Powered by AerisWeather